Weather History for Lumberton, NC

Change the Weather History Date:

Friday, February 7, 2014

  Actual Average Record
Temperature  
Mean Temperature 41 °F 45 °F  
Max Temperature 51 °F 56 °F 75 °F (1999)
Min Temperature 30 °F 34 °F 28 °F (2006)
Degree Days  
Heating Degree Days 24 20  
Month to date heating degree days 129 142  
Since 1 July heating degree days 1898 1861  
Cooling Degree Days 0 0  
Month to date cooling degree days 0 0  
Year to date cooling degree days 0 1  
Moisture  
Dew Point 32 °F    
Average Humidity 72    
Maximum Humidity 100    
Minimum Humidity 44    
Precipitation  
Precipitation T in 0.09 in 0.82 in (2002)
Month to date precipitation 0.60 0.60  
Year to date precipitation 3.67 3.57  
Sea Level Pressure  
Sea Level Pressure 30.30 in    
Wind  
Wind Speed 2 mph (East)    
Max Wind Speed 10 mph    
Max Gust Speed 16 mph    
Visibility 5 miles    
Events Fog    
T = Trace of Precipitation, MM = Missing Value Source: NWS Daily Summary

Daily Weather History Graph

Daily Weather History Graph

Search for Another Location

Airport:

Trip Planner

Search our weather history database for the weather conditions in past years. The results will help you decide how hot, cold, wet, or windy it might be!

Date:

Astronomy

Feb. 07, 2014 Rise Set
Actual Time 7:09 AM EST 5:51 PM EST
Civil Twilight 6:43 AM EST 6:17 PM EST
Nautical Twilight 6:13 AM EST 6:47 PM EST
Astronomical Twilight 5:44 AM EST 7:17 PM EST
Moon 12:04 PM EST (2/7) 1:21 AM EST (2/7)
Length of Visible Light 11h 34m
Length of Day
10h 42m
First Quarter, 59% of the Moon is Illuminated
Feb 7
First Quarter
Feb 14
Full
Feb 22
Last Quarter
Mar 1
New
Mar 8
First Quarter

Hourly Weather History & Observations

Time (EST) Temp. Windchill Dew Point Humidity Pressure Visibility Wind Dir Wind Speed Gust Speed Precip Events Conditions
12:37 AM 36.0 °F 29.6 °F 33.1 °F 89% 30.29 in 6.0 mi SSE 8.1 mph - 0.00 in   Overcast
12:54 AM 35.1 °F 29.3 °F 33.1 °F 92% 30.29 in 5.0 mi SSE 6.9 mph - 0.00 in   Overcast
1:54 AM 34.0 °F - 33.1 °F 96% 30.27 in 4.0 mi Calm Calm - N/A   Mostly Cloudy
2:04 AM 34.0 °F - 33.1 °F 96% 30.27 in 4.0 mi Calm Calm - N/A   Mostly Cloudy
2:30 AM 35.1 °F - 33.1 °F 92% 30.26 in 4.0 mi Calm Calm - N/A   Overcast
2:54 AM 34.0 °F - 33.1 °F 96% 30.27 in 4.0 mi Calm Calm - N/A   Overcast
3:02 AM 34.0 °F - 32.0 °F 92% 30.27 in 4.0 mi Calm Calm - N/A   Mostly Cloudy
3:15 AM 34.0 °F - 32.0 °F 92% 30.27 in 4.0 mi Calm Calm - N/A   Scattered Clouds
3:54 AM 32.0 °F - 30.9 °F 96% 30.27 in 2.5 mi Calm Calm - N/A   Clear
4:11 AM 32.0 °F 28.7 °F 30.9 °F 96% 30.28 in 1.5 mi NNW 3.5 mph - N/A   Clear
4:29 AM 30.9 °F - 30.0 °F 96% 30.28 in 1.8 mi Calm Calm - N/A   Clear
4:40 AM 32.0 °F - 30.9 °F 96% 30.28 in 2.0 mi Calm Calm - N/A   Clear
4:54 AM 32.0 °F - 30.9 °F 96% 30.29 in 2.5 mi Calm Calm - N/A   Clear
5:01 AM 32.0 °F - 30.9 °F 96% 30.29 in 2.5 mi Calm Calm - N/A   Scattered Clouds
5:09 AM 30.9 °F - 30.9 °F 100% 30.30 in 2.0 mi Calm Calm - N/A   Mostly Cloudy
5:31 AM 32.0 °F 28.7 °F 30.9 °F 96% 30.30 in 2.5 mi East 3.5 mph - N/A   Overcast
5:46 AM 33.1 °F 28.7 °F 30.9 °F 92% 30.30 in 3.0 mi East 4.6 mph - N/A   Mostly Cloudy
5:54 AM 33.1 °F 30.0 °F 30.9 °F 92% 30.30 in 3.0 mi East 3.5 mph - N/A   Mostly Cloudy
6:11 AM 33.1 °F - 30.9 °F 92% 30.31 in 3.0 mi Calm Calm - N/A   Mostly Cloudy
6:18 AM 32.0 °F - 30.9 °F 96% 30.32 in 2.5 mi Calm Calm - N/A   Mostly Cloudy
6:50 AM 30.2 °F - 28.4 °F 93% 30.32 in 1.8 mi Calm Calm - N/A   Scattered Clouds
6:51 AM 30.9 °F - 28.9 °F 92% 30.32 in 1.8 mi Calm Calm - N/A   Partly Cloudy
7:02 AM 30.9 °F - 28.9 °F 92% 30.32 in 1.5 mi Calm Calm - N/A   Scattered Clouds
7:10 AM 30.0 °F - 28.9 °F 96% 30.33 in 1.0 mi Calm Calm - N/A   Mostly Cloudy
7:19 AM 30.9 °F - 30.0 °F 96% 30.33 in 0.8 mi Calm Calm - N/A   Mostly Cloudy
7:54 AM 30.9 °F - 30.9 °F 100% 30.33 in 0.2 mi Calm Calm - N/A Fog Light Freezing Fog
8:34 AM 33.1 °F - 33.1 °F 100% 30.33 in 1.2 mi Calm Calm - N/A   Scattered Clouds
8:54 AM 35.1 °F - 34.0 °F 96% 30.33 in 1.8 mi Calm Calm - N/A   Clear
9:01 AM 36.0 °F 33.3 °F 34.0 °F 93% 30.32 in 2.5 mi Variable 3.5 mph - N/A   Clear
9:08 AM 36.0 °F 33.3 °F 33.1 °F 89% 30.33 in 4.0 mi NE 3.5 mph - N/A   Clear
9:54 AM 41.0 °F 37.1 °F 30.9 °F 67% 30.35 in 10.0 mi NNE 5.8 mph - N/A   Clear
10:54 AM 45.0 °F 42.6 °F 30.9 °F 58% 30.35 in 10.0 mi North 4.6 mph - N/A   Clear
11:54 AM 46.0 °F 44.8 °F 30.0 °F 54% 30.33 in 10.0 mi ENE 3.5 mph - N/A   Clear
12:54 PM 46.9 °F - 32.0 °F 56% 30.29 in 10.0 mi Variable 5.8 mph - N/A   Clear
1:54 PM 48.9 °F - 30.9 °F 50% 30.28 in 10.0 mi Calm Calm - N/A   Clear
2:54 PM 50.0 °F - 30.9 °F 48% 30.27 in 10.0 mi Calm Calm - N/A   Clear
3:54 PM 51.1 °F - 30.0 °F 44% 30.27 in 10.0 mi NE 3.5 mph - N/A   Clear
4:54 PM 50.0 °F - 32.0 °F 50% 30.25 in 10.0 mi SE 5.8 mph - N/A   Clear
5:54 PM 45.0 °F 43.5 °F 35.1 °F 68% 30.27 in 10.0 mi South 3.5 mph - N/A   Clear
6:54 PM 42.1 °F - 35.1 °F 76% 30.29 in 9.0 mi Calm Calm - N/A   Clear
7:54 PM 39.9 °F - 36.0 °F 86% 30.29 in 9.0 mi Calm Calm - N/A   Clear
8:54 PM 39.0 °F - 35.1 °F 86% 30.29 in 7.0 mi Calm Calm - N/A   Clear
9:54 PM 37.0 °F - 35.1 °F 93% 30.28 in 7.0 mi Calm Calm - N/A   Clear
10:54 PM 37.0 °F - 33.1 °F 86% 30.29 in 8.0 mi Calm Calm - N/A   Clear
11:54 PM 35.1 °F - 33.1 °F 92% 30.27 in 6.0 mi Calm Calm - N/A   Clear